Regional Weather Roundup
Issued by NWS San Diego, CA

Home | Current Version | Previous Version | Text Only | Print | Product List | Glossary On
Versions: 1 2 3 4 5 6 7 8 9 10 11 12 13 14 15 16 17 18 19 20 21 22 23 24 25 26
000
ASUS46 KSGX 190111
RWRSGX

SAN DIEGO HOURLY WEATHER ROUNDUP
NATIONAL WEATHER SERVICE SAN DIEGO CA
500 PM PST SUN FEB 18 2018

NOTE: "FAIR" INDICATES FEW OR NO CLOUDS BELOW 12,000 FEET WITH NO
SIGNIFICANT WEATHER AND/OR OBSTRUCTIONS TO VISIBILITY.

CAZ042-043-060-061-PZZ750-775-190200-

GREATER SAN DIEGO AREA

CITY           SKY/WX    TMP DP  RH WIND       PRES   REMARKS
SAN DIEGO AP   MOCLDY    61  51  70 SW9       29.94F
NATIONAL CITY    N/A     63  54  72 SW6       29.95S
CHULA VISTA      N/A     62  54  75 W5        29.84F
IMPERIAL BEACH CLEAR     62  51  67 SW9       29.94S
BROWN FIELD    CLEAR     59  51  75 W10       29.92S
MIRAMAR MCAS   PTCLDY    63  49  60 SW9       29.91F
MONTGOMERY FLD PTCLDY    60  51  72 W9        29.92F
GILLESPIE FLD  PTCLDY    63  45  51 SW9       29.92S

$$

NORTH SAN DIEGO COUNTY

CITY           SKY/WX    TMP DP  RH WIND       PRES   REMARKS
CAMP PENDLETON CLEAR     59  51  75 W3        29.91S
OCEANSIDE AP   MOCLDY    61  51  70 VRB6      29.91S
OCEANSIDE HBR    N/A     62  54  75 SW3       29.94S
VISTA            N/A     62  50  66 SW1       29.89S
CARLSBAD       PTCLDY    59  52  77 SW8       29.91S
DEL MAR          N/A     60  53  77 CALM      29.94S
LA JOLLA SCRIP   N/A     59  53  79 S7        29.92S
FALLBROOK        N/A     61  52  71 SW1       29.92R
ESCONDIDO        N/A     61  48  61 SW6       29.92R
SAN MARCOS       N/A     59  50  73 W6        29.94S
POWAY            N/A     64  45  50 CALM      29.91S

$$

EAST SAN DIEGO COUNTY

CITY           SKY/WX    TMP DP  RH WIND       PRES   REMARKS
RAMONA         CLEAR     60  39  45 W7        29.91S
SANTEE LAKES     N/A     63  49  59 SW5       29.90F
LA MESA          N/A     62  46  56 SW2       29.85S
JAMUL            N/A     61  44  53 CALM      29.92S
CAMPO            N/A     55  41  59 SW18      29.88F

$$

ORANGE COUNTY AND THE LOS ANGELES BASIN

CITY           SKY/WX    TMP DP  RH WIND       PRES   REMARKS
JOHN WAYNE AP  PTCLDY    61  51  70 S10       29.90F
LAGUNA BEACH     N/A     61  53  73 CALM      29.85F
LAKE FOREST FR   N/A     60  42  51 SW1       29.78F
HUNTINGTON BCH   N/A     61  53  73 W3        29.91S
LOS ALAMITOS   FAIR      60  51  72 SW12      29.89S
FULLERTON      PTCLDY    61  50  67 SW8       29.89S
LONG BEACH     CLEAR     62  51  67 SW8       29.90R
L.A. AP        PTCLDY    60  50  69 SW15      29.90S
L.A. DOWNTOWN  CLEAR     61  49  64 CALM      29.89S

$$

THE INLAND EMPIRE

CITY           SKY/WX    TMP DP  RH WIND       PRES   REMARKS
CORONA         CLEAR     63  41  44 W10G17    29.87S
CHINO          PTCLDY    63  41  44 SW16      29.89S
ONTARIO        PTCLDY    62  36  37 SW13G23   29.87S
SAN BERNARDINO PTCLDY    64  28  25 SW13      29.87S
RIVERSIDE AP   CLEAR     63  39  41 W14       29.86S
MORENO VALLEY    N/A     63  40  42 W5        27.98S
MARCH ARB      CLEAR     62  34  35 CALM      29.87S
HORSETHIEF CYN   N/A     60  32  34 W7        29.87S
PERRIS           N/A     63  41  44 S6        29.79S
HEMET EAST       N/A     59  33  37 SW5       29.94S
FRENCH VALLEY  FAIR      59  36  41 SW13G18   29.90S
TEMECULA         N/A     62  44  51 SW8       29.93R

$$

SAN BERNARDINO AND RIVERSIDE COUNTY MOUNTAINS

CITY           SKY/WX    TMP DP  RH WIND       PRES   REMARKS
BIG BEAR AP      N/A     37  30  75 SW9G17    29.87S WCI  31

$$

SOUTHERN DESERT INCLUDING THE COACHELLA VALLEY

CITY           SKY/WX    TMP DP  RH WIND       PRES   REMARKS
PALM SPRINGS   CLEAR     73  32  22 VRB5      29.75F
THOUSAND PALMS   N/A     74  36  24 S2        29.72F
PALM DESERT      N/A     74  38  27 W2        29.08
THERMAL        CLEAR     75  31  19 SE5       29.72F
BLYTHE         CLEAR     74  40  29 SW21      29.73F
IMPERIAL AP    CLEAR     73  40  30 W20G26    29.76S
EL CENTRO NAS  LGT RAIN  73  38  27 W25G35    29.79F
YUMA AZ        PTCLDY    75  36  24 S12       29.78S
MEXICALI       CLEAR     73  39  29 S10       29.78S

$$

UPPER DESERT

CITY           SKY/WX    TMP DP  RH WIND       PRES   REMARKS
VICTORVILLE AP CLEAR     61  28  29 S17       29.79F
HESPERIA         N/A     54  33  44 NE18      29.80F
APPLE VALLEY     N/A     57  33  40 N16       29.82F
PALMDALE       CLEAR     58  32  37 SW21G32   29.80
LANCASTER      CLEAR     57  32  38 SW24G35   29.81S
EDWARDS AFB    CLEAR     60  30  33 SW26G35   29.75F
DAGGETT        CLEAR     66  33  29 SW28G38   29.69F
29 PALMS N     CLEAR     64  33  31 SW25      29.77F
NEEDLES        CLEAR     76  24  14 SW20G30   29.66F

$$

REGIONAL REPORTS

CITY           SKY/WX    TMP DP  RH WIND       PRES   REMARKS
SANTA BARBARA  CLEAR     62  46  55 W13       29.86F
SANDBERG       CLEAR     47  34  60 SW10G18   29.86F
LAS VEGAS NV   PTCLDY    68  22  17 S17G31    29.56S
PHOENIX AZ     MOCLDY    71  40  32 SW10      29.79S
TIJUANA        CLEAR     61  48  63 W12       29.94F
ENSENADA NW      N/A     62  32  32 CALM      29.87F

$$

OFFSHORE ISLANDS

CITY           SKY/WX    TMP DP  RH WIND       PRES   REMARKS
CATALINA ARPT  MOCLDY    52  46  80 SW16      29.91F
SAN NICOLAS IS PTCLDY    55  32  41 W26G35    29.92S

$$

MARINE AND OFFSHORE BUOY REPORTS

STATION/POSITION SKY/WX   TEMP    WIND        PRES    VSBY  SWELL
                          AIR SEA DIR/SP/G                  HT/PER/DIR
                          (F)     (DEG/KT/KT) (MB)    (MI)  (FT/S/D)
TANNER BANKS               56 61              1014.1
S CLEMENTE BASIN           60 62  270/ 12/ 14 1013.4F         3/210/14
SAN NICOLAS IS.               59                N/A           3/290/14
SO. S. ROSA ISLA           56 58  310/ 23/ 27 1013.3F         3/300/14
W. S. BARBARA CH           55     320/ 23/ 29 1013.4F         3/270/14
M. S. BARBARA CH           58     280/ 21/ 25   N/A           2/220/14
S. MONICA BASIN                   280/ 10/ 12 1012.0F         2/150/14
S PEDRO CHANNEL               61                N/A           2/260/14
CMP PENDLETON NS              61                N/A           2/220/14
OCEANSIDE OFFSHR              62                N/A           2/190/13
TORREY PINES OTR              62                N/A           2/210/13
SAN DIEGO BAY                 66              1014.0F
POINT LOMA SOUTH              62                N/A           2/200/13

$$





USA.gov is the U.S. government's official web portal to all federal, state and local government web resources and services.